[[{"header":{"parameterUnit":"m.s-1","parameterCategory":1,"la1":30.2991,"la2":30.254,"lo1":-89.0895,"lo2":-89.0444,"dy":0.0017,"dx":0.0017,"nx":28,"ny":28,"refTime":"2025-03-13T03:00:00:Z","depth":0,"parameterNumber":2,"parameterNumberName":"U-component_of_WINDS"},"data":[0,0,0,0,0,0,0,0,0,0,0,0,0,0,0,0,0,0,0,0,0,0,0,0,0,0,0,0,0,0,0,0,0,0,0,0,0,0,0,0,0,0,0,0,0,0,0,0,0,0,0,0,0,0,0,0,0,0,-0.455,-0.4551,0,-0.4556,-0.4556,-0.4556,-0.4502,-0.45,-0.4498,-0.4497,-0.4501,-0.4503,-0.4504,0,0,0,0,0,0,0,0,0,0,0,0,0,-0.4489,-0.449,-0.455,-0.4551,-0.4551,-0.4556,-0.4556,-0.4556,-0.4502,-0.45,-0.4498,-0.4496,-0.4501,-0.4502,-0.4504,0,0,0,0,0,0,0,0,0,0,0,0,0,-0.4507,-0.4491,-0.455,-0.4524,-0.4522,-0.4556,-0.4556,-0.4556,-0.4502,-0.45,-0.4498,-0.4496,-0.45,-0.4502,-0.4505,-0.4564,0,0,-0.4511,-0.4512,0,0,0,0,0,0,0,0,-0.4506,-0.4509,-0.4528,-0.4526,-0.4524,-0.4526,-0.4536,-0.4559,-0.4503,-0.451,-0.4497,-0.4494,-0.4511,-0.4512,-0.4518,-0.4564,-0.4564,-0.4512,-0.4513,-0.4514,-0.4515,0,0,0,0,0,0,0,-0.4505,-0.4509,-0.4553,-0.4528,-0.4526,-0.4511,-0.4511,-0.454,-0.4523,-0.4509,-0.4505,-0.4506,-0.4509,-0.4516,-0.4518,-0.4564,-0.4512,-0.4514,-0.4515,-0.4516,-0.4655,-0.4657,0,0,0,0,0,0,-0.4508,-0.4508,-0.4552,-0.4553,-0.4509,-0.4514,-0.4514,-0.4527,-0.4522,-0.452,-0.4508,-0.4504,-0.4513,-0.4515,-0.4518,-0.4584,-0.4514,-0.4516,-0.4517,-0.4652,-0.4655,-0.4658,0,0,0,0,0,0,-0.4507,-0.4512,-0.4552,-0.4529,-0.4533,-0.4517,-0.4533,-0.4529,-0.4535,-0.4522,-0.4518,-0.4519,-0.4512,-0.4515,-0.4552,-0.4584,-0.4517,-0.4519,-0.465,-0.4653,-0.4656,-0.472,0,0,0,0,0,0,-0.4505,-0.4512,-0.4536,-0.453,-0.4535,-0.4588,-0.4535,-0.453,-0.454,-0.4534,-0.4531,-0.4528,-0.451,-0.4549,-0.4554,-0.4586,-0.4521,-0.4647,-0.4651,-0.4655,-0.4715,-0.4725,-0.4734,0,0,0,0,0,-0.4503,-0.4554,-0.4537,-0.4543,-0.4564,-0.459,-0.4592,-0.4571,-0.4543,-0.4565,-0.4556,-0.4528,-0.458,-0.4553,-0.4559,-0.4592,-0.4644,-0.465,-0.4655,-0.471,-0.4723,-0.4734,0,0,0,0,0,0,-0.4564,-0.4553,-0.4534,-0.4585,-0.4589,-0.458,-0.4609,-0.4585,-0.4597,-0.4591,-0.4564,-0.4563,-0.4604,-0.4602,-0.4572,-0.4647,-0.4607,-0.4613,-0.4647,-0.4659,-0.4668,-0.4668,-0.4523,0,0,0,0,0,-0.4583,-0.4606,-0.4594,-0.464,-0.4643,-0.4625,-0.4636,-0.4619,-0.4621,-0.4623,-0.4616,-0.4619,-0.4635,-0.4647,-0.4662,-0.4714,-0.4711,-0.4739,-0.4748,-0.4756,-0.4762,-0.4786,-0.4798,-0.4675,-0.4675,-0.4675,0,0,-0.4623,-0.462,-0.4636,-0.4652,-0.4653,-0.4675,-0.4627,-0.4654,-0.467,-0.4627,-0.4661,-0.4656,-0.4657,-0.4702,-0.4721,-0.47,-0.4795,-0.4763,-0.4769,-0.4771,-0.4793,-0.4805,-0.4815,-0.4678,-0.4678,-0.4677,0,0,-0.4707,-0.4708,-0.4745,-0.4746,-0.4748,-0.4735,-0.4744,-0.4738,-0.4734,-0.4768,-0.4735,-0.4752,-0.4782,-0.4783,-0.4788,-0.4869,-0.4843,-0.4874,-0.4924,-0.4948,-0.4958,-0.4966,-0.4993,-0.5003,-0.488,-0.4881,-0.4881,0,-0.4757,-0.4791,-0.4767,-0.4795,-0.4801,-0.4763,-0.4798,-0.48,-0.4807,-0.4812,-0.4789,-0.4823,-0.4821,-0.4864,-0.4883,-0.4889,-0.4896,-0.4875,-0.4959,-0.4967,-0.4974,-0.4999,-0.501,-0.4884,-0.4884,-0.4883,-0.4883,0,-0.485,-0.4873,-0.4903,-0.4909,-0.4919,-0.4951,-0.493,-0.4943,-0.4924,-0.4914,-0.4947,-0.4943,-0.4955,-0.4964,-0.4946,-0.5003,-0.499,-0.4963,-0.4923,-0.499,-0.5013,-0.5023,-0.489,-0.4888,-0.4887,-0.4886,0,0,-0.4975,-0.4965,-0.4976,-0.4977,-0.4974,-0.4991,-0.502,-0.5031,-0.5041,-0.5046,-0.5068,-0.5093,-0.5067,-0.5072,-0.5054,-0.5075,-0.5137,-0.5045,-0.5045,-0.5061,-0.5196,-0.5215,-0.5227,-0.5119,-0.5121,-0.5123,-0.5195,0,-0.5056,-0.5105,-0.5082,-0.5133,-0.5153,-0.5114,-0.5139,-0.5139,-0.5129,-0.5143,-0.5132,-0.5149,-0.5115,-0.5117,-0.5137,-0.5125,-0.5163,-0.512,-0.5138,-0.5139,-0.5138,-0.524,-0.5261,-0.533,-0.5204,-0.5206,-0.5207,0,-0.5157,-0.5165,-0.5217,-0.5208,-0.5215,-0.5238,-0.5244,-0.5259,-0.5257,-0.5248,-0.5252,-0.5228,-0.5254,-0.5213,-0.5247,-0.5218,-0.5224,-0.5219,-0.5221,-0.5221,-0.5177,-0.5241,-0.5351,-0.5361,-0.5221,-0.522,-0.5219,0,-0.524,-0.5264,-0.5297,-0.53,-0.529,-0.5306,-0.5303,-0.5299,-0.5306,-0.5311,-0.5315,-0.5324,-0.5328,-0.5335,-0.5313,-0.5286,-0.5348,-0.5307,-0.534,-0.534,-0.5355,-0.5354,-0.5466,-0.5361,-0.536,-0.536,-0.536,0,-0.5333,-0.5366,-0.5334,-0.5355,-0.539,-0.5363,-0.5398,-0.539,-0.5386,-0.5403,-0.5371,-0.5388,-0.5358,-0.5371,-0.5354,-0.5383,-0.5386,-0.5378,-0.5373,-0.538,-0.5381,-0.5384,-0.5378,-0.5363,-0.5362,-0.5362,-0.5361,0,-0.5432,-0.5413,-0.5446,-0.5433,-0.5431,-0.5457,-0.5445,-0.5462,-0.5449,-0.5471,-0.5475,-0.5454,-0.5467,-0.5446,-0.5457,-0.5446,-0.5485,-0.5473,-0.5486,-0.5482,-0.5516,-0.5512,-0.5632,-0.5646,-0.5533,-0.5534,-0.5535,0,-0.5492,-0.5516,-0.5505,-0.5514,-0.5512,-0.5527,-0.5533,-0.5507,-0.5514,-0.5512,-0.5529,-0.554,-0.5547,-0.557,-0.5555,-0.5563,-0.555,-0.5591,-0.5551,-0.5557,-0.5548,-0.5547,-0.5548,-0.56,-0.5601,-0.5602,-0.5603,0,-0.5599,-0.5587,-0.5598,-0.5604,-0.5612,-0.5616,-0.5618,-0.5627,-0.5598,-0.5608,-0.5621,-0.5626,-0.5637,-0.5647,-0.565,-0.5645,-0.5619,-0.5616,-0.5623,-0.5631,-0.5636,-0.5632,-0.5507,-0.5613,-0.5612,-0.5611,-0.5611,-0.561,-0.568,-0.5698,-0.5692,-0.5704,-0.5702,-0.5703,-0.5718,-0.5705,-0.5716,-0.5722,-0.5705,-0.5721,-0.5715,-0.5717,-0.5715,-0.5726,-0.5708,-0.5719,-0.5722,-0.5725,-0.573,-0.5635,-0.5727,-0.5726,-0.5726,-0.5726,-0.5726,0,-0.5784,-0.5777,-0.5788,-0.579,-0.5799,-0.5772,-0.5772,-0.578,-0.5795,-0.5792,-0.5798,-0.5812,-0.5821,-0.5806,-0.5811,-0.5823,-0.5811,-0.5826,-0.5824,-0.5823,-0.5747,-0.5739,-0.5835,-0.5835,-0.5835,-0.5835,-0.5835,-0.5835,-0.5839,-0.5868,-0.5855,-0.5881,-0.5874,-0.5889,-0.5891,-0.5891,-0.5888,-0.5904,-0.5911,-0.59,-0.5892,-0.5896,-0.5902,-0.5897,-0.5901,-0.5919,-0.591,-0.5839,-0.5828,-0.5818,-0.581,-0.592,-0.592,-0.5985,-0.5985,-0.5986]},{"header":{"parameterUnit":"m.s-1","parameterCategory":1,"la1":30.2991,"la2":30.254,"lo1":-89.0895,"lo2":-89.0444,"dy":0.0017,"dx":0.0017,"nx":28,"ny":28,"refTime":"2025-03-13T03:00:00:Z","depth":0,"parameterNumber":3,"parameterNumberName":"V-component_of_WINDS"},"data":[0,0,0,0,0,0,0,0,0,0,0,0,0,0,0,0,0,0,0,0,0,0,0,0,0,0,0,0,0,0,0,0,0,0,0,0,0,0,0,0,0,0,0,0,0,0,0,0,0,0,0,0,0,0,0,0,0,0,2.0697,2.0697,0,2.068,2.068,2.068,2.0685,2.0685,2.0686,2.0686,2.0668,2.0668,2.0667,0,0,0,0,0,0,0,0,0,0,0,0,0,2.0733,2.0732,2.0697,2.0696,2.0696,2.068,2.068,2.068,2.0685,2.0685,2.0686,2.0686,2.0669,2.0668,2.0667,0,0,0,0,0,0,0,0,0,0,0,0,0,2.0717,2.0732,2.0697,2.0697,2.0697,2.068,2.068,2.068,2.0685,2.0685,2.0686,2.0686,2.0669,2.0668,2.0667,2.0649,0,0,2.0663,2.0663,0,0,0,0,0,0,0,0,2.0718,2.0715,2.0697,2.0697,2.0697,2.0685,2.0686,2.0669,2.0685,2.0689,2.0686,2.0687,2.0674,2.0672,2.0668,2.0648,2.0647,2.0663,2.0662,2.0662,2.0661,0,0,0,0,0,0,0,2.0719,2.0716,2.069,2.0697,2.0697,2.0698,2.0696,2.0683,2.0679,2.0689,2.0689,2.0687,2.0674,2.0669,2.0667,2.0647,2.0663,2.0662,2.0661,2.0661,2.0614,2.0613,0,0,0,0,0,0,2.072,2.0717,2.0691,2.069,2.0709,2.0697,2.0695,2.0688,2.0679,2.0678,2.0687,2.0688,2.0671,2.0669,2.0667,2.0646,2.0662,2.0661,2.066,2.0614,2.0614,2.0613,0,0,0,0,0,0,2.0721,2.0718,2.0691,2.0703,2.07,2.0696,2.0688,2.0688,2.0683,2.0677,2.0677,2.0683,2.0671,2.0668,2.0654,2.0646,2.066,2.0659,2.0615,2.0614,2.0613,2.0605,0,0,0,0,0,0,2.0722,2.0718,2.0711,2.0703,2.07,2.0678,2.0688,2.0687,2.0681,2.0682,2.0673,2.0673,2.0671,2.0656,2.0653,2.0645,2.0658,2.0616,2.0615,2.0614,2.0606,2.0604,2.0602,0,0,0,0,0,2.0723,2.0708,2.071,2.0707,2.0691,2.0678,2.0676,2.0675,2.0681,2.0674,2.067,2.0673,2.0647,2.0654,2.0651,2.0642,2.0616,2.0615,2.0614,2.0607,2.0604,2.0602,0,0,0,0,0,0,2.0714,2.0707,2.0709,2.0692,2.0686,2.0679,2.067,2.0672,2.0664,2.0665,2.0664,2.0662,2.0647,2.0643,2.0651,2.0625,2.0633,2.0631,2.0628,2.0626,2.0624,2.0626,2.0657,0,0,0,0,0,2.071,2.0701,2.0695,2.068,2.0677,2.0674,2.0668,2.0669,2.0662,2.0659,2.0654,2.0647,2.0638,2.0632,2.0623,2.0606,2.0604,2.0598,2.0596,2.0595,2.0593,2.0585,2.0583,2.0609,2.0609,2.0609,0,0,2.0702,2.0697,2.0691,2.0679,2.0674,2.0664,2.0672,2.0661,2.0654,2.0657,2.0643,2.064,2.0632,2.0617,2.0609,2.0613,2.0586,2.0593,2.0592,2.0591,2.0584,2.0581,2.0579,2.0608,2.0608,2.0609,0,0,2.0682,2.0677,2.0665,2.066,2.0653,2.0651,2.0649,2.0642,2.064,2.0626,2.0629,2.0621,2.0604,2.0599,2.0595,2.0575,2.0577,2.0572,2.0562,2.0555,2.0553,2.0551,2.0545,2.0543,2.057,2.057,2.057,0,2.0672,2.0658,2.0658,2.0647,2.0642,2.0646,2.0634,2.063,2.062,2.0616,2.062,2.0601,2.0596,2.058,2.0575,2.0571,2.0568,2.0573,2.0553,2.0551,2.0549,2.0544,2.0541,2.057,2.057,2.057,2.057,0,2.0647,2.0637,2.0628,2.062,2.0614,2.0602,2.0601,2.0595,2.0596,2.0594,2.0581,2.0576,2.0566,2.0562,2.0563,2.0547,2.055,2.0553,2.0561,2.0546,2.0541,2.0539,2.0569,2.0569,2.0569,2.057,0,0,2.062,2.0613,2.061,2.0606,2.06,2.0592,2.0582,2.0573,2.0568,2.0562,2.0553,2.054,2.0544,2.0539,2.0539,2.0532,2.0519,2.0537,2.0537,2.0535,2.0502,2.05,2.0497,2.0521,2.052,2.052,2.0503,0,2.06,2.0581,2.0582,2.0565,2.0557,2.0561,2.0552,2.0547,2.0546,2.0539,2.0537,2.0528,2.0533,2.0531,2.0524,2.0522,2.0512,2.0523,2.0513,2.0513,2.0515,2.0494,2.0491,2.0475,2.0501,2.0501,2.05,0,2.0573,2.0567,2.055,2.0546,2.0542,2.0534,2.0528,2.052,2.0516,2.0515,2.051,2.0512,2.0502,2.051,2.0496,2.0504,2.05,2.0498,2.0498,2.0497,2.0506,2.0493,2.047,2.0468,2.0497,2.0497,2.0497,0,2.0556,2.0543,2.0532,2.0529,2.0524,2.0518,2.0516,2.0512,2.0507,2.0501,2.0499,2.0491,2.0488,2.0482,2.0482,2.0488,2.0469,2.0477,2.0469,2.0469,2.0465,2.0465,2.0441,2.0462,2.0462,2.0462,2.0462,0,2.0534,2.0523,2.0524,2.0517,2.0506,2.0507,2.0496,2.0494,2.0491,2.0484,2.0487,2.048,2.0481,2.0474,2.0474,2.0464,2.0462,2.0461,2.0462,2.0461,2.0461,2.0459,2.046,2.0461,2.0461,2.0461,2.0461,0,2.0512,2.0513,2.0501,2.0498,2.0497,2.0489,2.0486,2.048,2.0479,2.047,2.0468,2.0467,2.046,2.046,2.0451,2.0451,2.0439,2.044,2.044,2.0441,2.0433,2.0434,2.0408,2.0405,2.0426,2.0426,2.0426,0,2.0498,2.049,2.0487,2.0483,2.0481,2.0474,2.047,2.0471,2.0467,2.0462,2.0456,2.0449,2.0444,2.0432,2.0431,2.0424,2.0426,2.0417,2.0425,2.0425,2.0427,2.0427,2.0427,2.0415,2.0415,2.0415,2.0415,0,2.0473,2.0474,2.0468,2.0463,2.0459,2.0454,2.045,2.0447,2.0448,2.0443,2.0436,2.0432,2.0424,2.0417,2.0412,2.0409,2.0413,2.0412,2.041,2.041,2.0411,2.0411,2.0437,2.0413,2.0413,2.0413,2.0413,2.0413,2.0455,2.0449,2.0447,2.0441,2.0438,2.0435,2.0429,2.0429,2.0423,2.0417,2.0418,2.0411,2.0408,2.0401,2.0398,2.0393,2.0396,2.0392,2.0392,2.0391,2.0391,2.0412,2.0391,2.0391,2.0391,2.0392,2.0392,0,2.0431,2.043,2.0425,2.042,2.0416,2.042,2.0416,2.0412,2.0405,2.0403,2.0398,2.039,2.0385,2.0383,2.0378,2.0374,2.0375,2.0373,2.0373,2.0373,2.0388,2.039,2.0372,2.0372,2.0372,2.0372,2.0372,2.0372,2.0418,2.0409,2.041,2.0399,2.0398,2.0392,2.0389,2.0387,2.0385,2.0377,2.0372,2.0372,2.037,2.0365,2.036,2.036,2.0358,2.0355,2.0355,2.0369,2.0371,2.0373,2.0376,2.0354,2.0354,2.0341,2.0341,2.0341]}]]